Simultaneous Nadir Overpasses (SNOs) Predictions

Prediction of SNOs between LANDSAT-8 and NOAA-19 Satellite Orbit:

Table of predicted SNOs for the next 14.0 days since TLE Epoch: 1/26/2017
Index Date (LANDSAT-8) Time (LANDSAT-8) Lat,Lon (LANDSAT-8) SZA (LANDSAT-8 ) Date (NOAA-19) Time (NOAA-19) Lat,Lon (NOAA-19) SZA (NOAA-19 ) Distance(km) Time Diff (sec)
1 01/28/2017 20:20:08 75.65,-117.87 93.57 01/28/2017 20:19:53 75.66,-117.86 93.59 2.01 15
2 01/28/2017 21:09:40 -75.42, 49.12 86.68 01/28/2017 21:10:51 -75.39, 50.28 86.68 32.66 71
3 01/31/2017 01:53:52 -75.64, -21.32 87.05 01/31/2017 01:53:50 -75.65, -21.25 87.04 2.37 2
4 02/02/2017 06:38:01 -76.00, -91.31 87.30 02/02/2017 06:36:52 -76.05, -93.31 87.28 54.04 69
5 02/02/2017 07:27:33 75.69, 75.38 92.36 02/02/2017 07:27:42 75.67, 75.30 92.34 3.05 9
6 02/04/2017 12:11:48 75.75, 4.49 91.77 02/04/2017 12:10:37 75.73, 4.41 91.76 2.80 71
7 02/04/2017 13:01:17 -75.68, 171.92 88.31 02/04/2017 13:01:38 -75.66, 171.91 88.33 2.27 21
8 02/06/2017 17:45:32 -75.74, 101.02 88.93 02/06/2017 17:44:33 -75.75, 100.93 88.92 2.96 59
9 02/06/2017 18:34:59 75.66, -91.56 90.99 02/06/2017 18:35:31 75.68, -91.57 91.01 2.09 32
10 02/08/2017 23:19:14 75.71,-162.47 90.35 02/08/2017 23:18:25 75.70,-162.33 90.34 3.92 49




NCC Satellite Simultaneous Nadir Overpasses (SNOs) Prediction Service
